Welcome to the New NWS' Forecast!
Most changes are behind the scenes, but click here for differences you might notice.
Latest weather observations around

Demopolis Municipal Airport (KDYA)

Using English Units (Switch to International System of Units)
Date/ Time (CDT) Wind (mph) Vis. (mi) Weather Sky Cond. Temp (°F) Rel. Humidity Wind Chill (°F) Heat Index (°F) Pressure Precip. (in)
Air Dwpt 6 hour Altimeter (inHg) Sea level (inHg) 1 hr 3 hr 6 hr
Max Min
Jul 19 15:55 Calm 10 Partly Cloudy SCT016 SCT023 SCT028 83 72     72%   88 29.9        
Jul 19 15:35 N 6 4 Light Rain SCT017 BKN025 BKN060 80 74     80%   85 29.91        
Jul 19 15:15 WNW 6 10 Mostly Cloudy BKN028 BKN034 BKN070 86 73     66%   93 29.92        
Jul 19 14:55 W 5 10 Partly Cloudy SCT026 SCT032 86 72     63%   92 29.91        
Jul 19 14:35 WSW 3 10 Mostly Cloudy BKN026 87 72     62%   94 29.91        
Jul 19 14:15 ESE 3 10 Partly Cloudy SCT022 87 73     63%   94 29.91        
Jul 19 13:55 Calm 10 Mostly Cloudy BKN022 84 72     66%   90 29.93        
Jul 19 13:35 Calm 10 Partly Cloudy SCT020 85 72     66%   91 29.94        
Jul 19 13:15 Calm 10 Mostly Cloudy BKN018 84 72     68%   90 29.94        
Jul 19 12:55 NNW 3 10 Mostly Cloudy BKN018 83 72     70%   89 29.95        
Jul 19 12:35 N 6 10 Mostly Cloudy BKN016 83 72     72%   88 29.96        
Jul 19 12:15 N 6 7 Mostly Cloudy BKN016 BKN050 81 72     75%   85 29.96        
Jul 19 11:55 N 8 7 Mostly Cloudy BKN016 BKN050 82 72     73%   87 29.97        
Jul 19 11:35 N 5 10 Cloudy OVC014 81 73     75%   87 29.98        
Jul 19 11:15 NNW 8 10 Cloudy BKN009 OVC015 80 72     78%   84 29.98        
Jul 19 10:55 Calm 7 Cloudy OVC009 78 72     83%   79 29.97        
Jul 19 10:35 Calm 7 Cloudy OVC009 77 72     84%   79 29.97        
Jul 19 10:15 Calm 5 Haze OVC007 77 72     85%   78 29.97        
Jul 19 09:55 W 5 7 Cloudy OVC005 76 72     87%   78 29.97        
Jul 19 09:35 WSW 3 7 Cloudy OVC005 75 72     90%   77 29.97        
Jul 19 09:15 SSW 3 5 Fog/Mist OVC005 75 72     90%   76 29.97        
Jul 19 08:55 S 3 7 Cloudy OVC005 75 72     90%   76 29.96        
Jul 19 08:35 Calm 7 Cloudy OVC005 75 72     90%   76 29.97        
Jul 19 08:15 W 3 7 Cloudy OVC005 75 72     91%   76 29.97        
Jul 19 07:55 WSW 5 7 Cloudy OVC003 74 72     91%   76 29.96        
Jul 19 07:35 SW 3 5 Fog/Mist OVC003 74 72     95%   76 29.96        
Jul 19 07:15 WNW 3 5 Fog/Mist OVC003 74 73     98%   75 29.96        
Jul 19 06:55 WSW 5 5 Fog/Mist OVC003 74 72     96%   75 29.95        
Jul 19 06:35 Calm 5 Fog/Mist OVC003 74 72     96%   75 29.95        
Jul 19 06:15 WSW 3 7 Cloudy OVC003 74 73     95%   76 29.94        
Jul 19 05:55 Calm 5 Fog/Mist OVC003 74 73     95%   76 29.94        
Jul 19 05:35 Calm 7 Cloudy OVC003 74 73     97%   76 29.94        
Jul 19 05:15 WSW 3 5 Fog/Mist OVC003 74 74     99%   76 29.94        
Jul 19 04:55 W 3 7 Cloudy OVC003 74 73     97%   76 29.93        
Jul 19 04:35 WSW 3 7 Cloudy OVC003 74 74     99%   76 29.93        
Jul 19 04:15 Calm 7 Cloudy OVC005 73 72     95%   75 29.92        
Jul 19 03:55 Calm 7 Cloudy OVC005 73 71     94%   74 29.91        
Jul 19 03:35 Calm 7 Cloudy OVC005 73 71     93%   75 29.91        
Jul 19 03:15 Calm 7 Mostly Cloudy BKN007 73 71     92%   75 29.91        
Jul 19 02:55 Calm 7 Partly Cloudy SCT005 SCT008 73 71     93%   74 29.9        
Jul 19 02:35 Calm 7 Mostly Cloudy BKN005 73 71     92%   75 29.9        
Jul 19 02:15 Calm 7 Partly Cloudy SCT005 74 71     91%   75 29.9        
Jul 19 01:55 Calm 10 Clear CLR 75 72     90%   76 29.91        
Jul 19 01:35 W 3 10 Clear CLR 74 71     92%   75 29.91        
Jul 19 01:15 Calm 7 Clear CLR 74 71     90%   76 29.9        
Jul 19 00:55 Calm 10 Clear CLR 75 71     89%   76 29.9        
Jul 19 00:15 Calm 7 Clear CLR 74 71     88%   76 29.91        
Jul 18 23:55 Calm 10 Clear CLR 75 71     87%   76 29.91        
Jul 18 23:35 Calm 7 Clear CLR 75 72     90%   76 29.91        
Jul 18 23:15 Calm 7 Clear CLR 75 71     88%   77 29.92        
Jul 18 22:55 Calm 10 Light Rain SCT043 SCT055 SCT070 75 71     86%   76 29.93        
Jul 18 22:35 Calm 10 Partly Cloudy SCT065 SCT095 SCT120 75 71     86%   76 29.94        
Jul 18 22:15 Calm 10 Clear CLR 75 71     85%   77 29.94        
Jul 18 21:55 SW 3 10 Partly Cloudy SCT120 76 71     84%   77 29.96        
Jul 18 21:35 WSW 8 10 Mostly Cloudy BKN110 76 71     84%   77 29.96        
Jul 18 21:15 SSW 9 10 Light Rain SCT050 BKN085 OVC110 77 71     82%   78 29.95        
Jul 18 20:55 Calm 10 Cloudy SCT038 BKN044 OVC060 78 72     81%   79 29.96        
Jul 18 20:35 SE 8 10 Cloudy SCT023 BKN044 OVC060 78 71     79%   79 29.95        
Jul 18 20:15 ESE 8 10 Cloudy SCT025 BKN037 OVC060 81 70     71%   84 29.95        
Jul 18 19:55 SE 11 10 Light Rain SCT039 SCT046 BKN060 81 71     72%   85 29.94        
Jul 18 19:35 SSE 7 10 Partly Cloudy SCT090 83 72     71%   88 29.92        
Jul 18 19:15 SE 3 10 Clear CLR 85 75     71%   93 29.89        
Jul 18 18:55 Calm 10 Clear CLR 87 75     69%   96 29.9        
Jul 18 18:35 Calm 10 Clear CLR 89 75     65%   99 29.89        
Jul 18 18:15 NNW 3 10 Clear CLR 90 74     59%   100 29.89        
Jul 18 17:55 S 3 10 Clear CLR 91 74     57%   101 29.89        
Jul 18 17:35 Calm 10 Clear CLR 90 74     60%   99 29.89        
Jul 18 17:15 Calm 10 Clear CLR 91 73     57%   100 29.89        
Jul 18 16:55 Calm 10 Partly Cloudy SCT036 93 73     53%   102 29.89        
Jul 18 16:35 NNE 5 10 Mostly Cloudy BKN036 92 73     53%   101 29.89        
Jul 18 16:15 SW 3 10 Mostly Cloudy BKN038 92 73     53%   102 29.88        
Jul 18 15:55 Calm 10 Clear CLR 91 71     52%   98 29.89        
Jul 18 15:35 WNW 3 10 Partly Cloudy SCT037 91 72     54%   99 29.9        
Jul 18 15:15 Calm 10 Partly Cloudy SCT037 91 72     54%   99 29.91        
Jul 18 14:55 NNW 3 10 Clear CLR 92 73     54%   100 29.92        
Jul 18 14:35 NW 5 10 Clear CLR 90 73     56%   99 29.93        
Jul 18 14:15 NNW 3 10 Partly Cloudy SCT050 90 74     58%   100 29.94        
Jul 18 13:55 Calm 10 Partly Cloudy SCT038 SCT050 90 72     57%   97 29.95        
Jul 18 13:35 Calm 10 Partly Cloudy SCT080 89 73     59%   97 29.95        
Jul 18 13:15 Calm 10 Partly Cloudy SCT080 89 73     58%   97 29.96        
Jul 18 12:55 NW 3 7 Partly Cloudy SCT042 SCT060 88 73     62%   96 29.97        
Jul 18 12:35 Calm 10 Partly Cloudy SCT028 SCT044 89 73     58%   97 29.97        
Jul 18 12:15 NNW 3 10 Partly Cloudy SCT026 SCT040 89 74     61%   97 29.98        
Jul 18 11:55 Calm 10 Partly Cloudy SCT026 SCT040 88 73     62%   95 29.98        
Jul 18 11:35 Calm 10 Partly Cloudy SCT022 86 74     67%   93 29.99        
Jul 18 11:15 WSW 3 7 Clear CLR 86 74     67%   94 29.99        
Jul 18 10:55 NNE 3 7 Clear CLR 85 74     69%   92 30        
Jul 18 10:35 NNW 3 10 Clear CLR 84 73     69%   91 30        
Jul 18 10:15 Calm 10 Partly Cloudy SCT016 83 73     71%   90 30        
Jul 18 09:55 W 3 10 Partly Cloudy SCT016 83 73     72%   89 30        
Jul 18 09:35 Calm 10 Clear CLR 81 73     75%   86 30.01        
Jul 18 09:15 Calm 7 Partly Cloudy SCT050 80 72     76%   85 30        
Jul 18 08:55 Calm 7 Partly Cloudy SCT050 80 72     78%   83 30.01        
Jul 18 08:35 Calm 7 Partly Cloudy SCT014 78 72     82%   79 30.01        
Jul 18 08:15 Calm 10 Partly Cloudy SCT014 76 71     84%   78 30.01        
Jul 18 07:55 Calm 7 Clear CLR 74 71     89%   76 30        
Jul 18 07:35 Calm 7 Clear   74 71     89%   76 30.01        
Jul 18 07:15 Calm 7 Clear   74 71     90%   75 30.01        
Jul 18 06:55 Calm 7 Clear   73 70     90%   75 30.01        
Jul 18 06:35 Calm 7 Mostly Cloudy BKN019 BKN065 73 70     91%   74 30.01        
Jul 18 06:15 Calm 7 Partly Cloudy SCT065 SCT110 73 70     91%   74 30        
Jul 18 05:55 Calm 7 Mostly Cloudy BKN110 72 70     92%   74 30        
Jul 18 05:35 Calm 10 Cloudy SCT029 OVC110 72 70     92%   74 30        
Jul 18 05:15 Calm 10 Mostly Cloudy SCT031 BKN110 72 70     93%   73 29.99        
Jul 18 04:55 Calm 10 Partly Cloudy SCT110 72 70     93%   73 29.98        
Jul 18 04:35 Calm 7 Partly Cloudy SCT100 72 70     93%   73 29.98        
Jul 18 04:15 Calm 7 Partly Cloudy SCT110 72 70     93%   73 29.98        
Jul 18 03:55 Calm 7 Partly Cloudy SCT110 72 70     93%   73 29.98        
Jul 18 03:35 Calm 7 Clear CLR 72 70     92%   74 29.98        
Jul 18 03:15 Calm 7 Clear CLR 73 70     92%   74 29.97        
Jul 18 02:55 Calm 7 Clear CLR 72 70     91%   74 29.97        
Jul 18 02:35 Calm 10 Mostly Cloudy SCT080 BKN090 73 70     90%   74 29.97        
Jul 18 02:15 S 3 7 Mostly Cloudy BKN080 BKN090 73 70     89%   75 29.97        
Jul 18 01:55 Calm 10 Partly Cloudy SCT080 73 70     89%   74 29.97        
Jul 18 01:35 Calm 10 Clear CLR 73 70     89%   75 29.98        
Jul 18 01:15 WSW 5 7 Clear CLR 74 70     89%   75 29.98        
Jul 18 00:55 W 3 7 Clear CLR 74 71     89%   75 29.98        
Jul 18 00:35 Calm 7 Clear CLR 73 70     90%   75 29.98        
Jul 18 00:15 Calm 10 Clear CLR 74 71     90%   75 29.99        
Jul 17 23:55 SSW 5 7 Clear CLR 74 71     90%   76 29.99        
Jul 17 23:35 Calm 10 Clear CLR 74 71     90%   75 29.99        
Jul 17 23:15 Calm 10 Clear CLR 74 71     90%   76 30        
Jul 17 22:55 Calm 7 Clear CLR 75 71     87%   76 30        
Jul 17 22:35 Calm 7 Clear CLR 75 70     85%   76 30.01        
Jul 17 22:15 Calm 10 Clear CLR 76 70     82%   77 30        
Jul 17 21:55 Calm 10 Clear CLR 76 70     82%   77 30        
Jul 17 21:35 Calm 10 Clear CLR 76 70     80%   78 30        
Jul 17 21:15 W 3 10 Clear CLR 77 70     78%   78 29.98        
Jul 17 20:55 Calm 10 Clear CLR 77 71     80%   78 29.98        
Jul 17 20:35 S 5 10 Clear CLR 78 70     76%   79 29.98        
Jul 17 20:15 WSW 7 10 Clear CLR 79 71     77%   80 29.98        
Jul 17 19:55 WSW 7 10 Partly Cloudy SCT040 SCT055 79 71     76%   82 29.98        
Jul 17 19:35 SSW 8 10 Partly Cloudy SCT041 SCT055 81 71     74%   85 29.99        
Jul 17 19:15 SW 10 10 Clear CLR 81 71     72%   85 29.99        
Jul 17 18:55 WSW 6 10 Clear CLR 82 70     68%   86 29.98        
Jul 17 18:35 W 5 10 Partly Cloudy SCT043 83 71     67%   88 29.97        
Jul 17 18:15 WSW 8 10 Partly Cloudy SCT050 86 74     67%   95 29.96        
Jul 17 17:55 Calm 10 Partly Cloudy SCT041 SCT050 87 75     68%   97 29.96        
Jul 17 17:35 Calm 10 Clear CLR 88 75     64%   98 29.95        
Jul 17 17:15 Calm 10 Clear CLR 92 73     54%   100 29.95        
Jul 17 16:55 W 3 10 Clear CLR 92 71     51%   99 29.95        
Jul 17 16:35 Calm 10 Clear CLR 92 71     52%   99 29.94        
Jul 17 16:15 Calm 10 Partly Cloudy SCT038 93 72     51%   100 29.94        
Jul 17 15:55 Calm 10 Partly Cloudy SCT060 SCT070 91 72     53%   99 29.95        
Jul 17 15:35 W 3 10 Clear CLR 91 72     53%   99 29.96        
Jul 17 15:15 Calm 10 Clear CLR 91 73     56%   99 29.98        
Jul 17 14:55 WNW 5 10 Clear CLR 91 74     56%   101 29.99        
Jul 17 14:35 NW 5 10 Clear CLR 90 73     57%   98 29.99        
Jul 17 14:15 Calm 10 Clear CLR 90 73     57%   98 29.99        
Jul 17 13:55 Calm 10 Clear CLR 89 72     58%   97 30        
Jul 17 13:35 NNW 3 10 Clear CLR 89 71     55%   96 30        
Jul 17 13:15 Calm 10 Clear CLR 89 72     59%   96 30.02        
Jul 17 12:55 Calm 10 Clear CLR 87 72     61%   95 30.02        
Jul 17 12:35 Calm 10 Clear CLR 88 72     60%   94 30.03        
Jul 17 12:15 Calm 10 Clear CLR 86 72     63%   93 30.03        
Jul 17 11:55 Calm 7 Clear CLR 86 72     63%   93 30.04        
Jul 17 11:35 Calm 10 Clear CLR 85 72     66%   90 30.04        
Jul 17 11:15 Calm 10 Partly Cloudy SCT015 83 73     70%   89 30.04        
Jul 17 10:55 Calm 10 Partly Cloudy SCT015 82 72     72%   88 30.04        
Jul 17 10:35 Calm 10 Clear CLR 81 72     75%   85 30.04        
Jul 17 10:15 Calm 10 Partly Cloudy SCT010 79 72     78%   83 30.04        
Jul 17 09:55 Calm 10 Cloudy OVC008 79 72     81%   80 30.04        
Jul 17 09:35 Calm 10 Cloudy OVC006 78 72     83%   79 30.05        
Jul 17 09:15 WNW 3 10 Cloudy OVC006 76 72     86%   77 30.05        
Jul 17 08:55 Calm 10 Cloudy OVC004 75 72     89%   76 30.05        
Jul 17 08:35 W 3 10 Cloudy OVC004 74 72     94%   76 30.06        
Jul 17 08:15 WSW 5 7 Cloudy OVC004 74 74     100%   76 30.06        
Notice The following observation data may not be complete
Jul 17 07:55 Calm 7 Cloudy OVC004          %     30.07        
Notice The following observation data may not be complete
Jul 17 07:35 SSW 3 5 Haze OVC002          %     30.06        
Notice The following observation data may not be complete
Jul 17 07:15 Calm 4 Haze OVC002          %     30.05        
Notice The following observation data may not be complete
Jul 17 06:55 S 3 1.5 Fog/Mist OVC002          %     30.04        
Notice The following observation data may not be complete
Jul 17 06:35 Calm 1 Fog/Mist OVC002          %     30.04        
Notice The following observation data may not be complete
Jul 17 06:15 Calm 2 Fog/Mist OVC002          %     30.04        
Notice The following observation data may not be complete
Jul 17 05:55 Calm 1.75 Fog/Mist OVC002          %     30.04        
Notice The following observation data may not be complete
Jul 17 05:35 S 3 3 Fog/Mist OVC002          %     30.03        
Notice The following observation data may not be complete
Jul 17 05:15 Calm 5 Haze OVC002          %     30.03        
Notice The following observation data may not be complete
Jul 17 04:55 SSW 3 4 Haze OVC002          %     30.03        
Notice The following observation data may not be complete
Jul 17 04:35 SSW 3 7 Clear            %     30.02        
Notice The following observation data may not be complete
Jul 17 04:15 S 3 4 Clear            %     30.02        
Notice The following observation data may not be complete
Jul 17 03:55 Calm 2.5 Clear            %     30.02        
Jul 17 03:35 Calm 4 Fog/Mist OVC002 73 73     100%   74 30.02        
Jul 17 03:15 Calm 5 Fog/Mist OVC002 73 73     100%   74 30.02        
Jul 17 02:55 Calm 7 Cloudy OVC002 73 73     100%   75 30.02        
Jul 17 02:35 Calm 7 Cloudy OVC002 73 73     100%   74 30.02        
Jul 17 02:15 Calm 7 Cloudy OVC002 72 72     100%   74 30.01        
Jul 17 01:55 S 5 7 Partly Cloudy SCT002 SCT010 72 72     100%   74 30        
Jul 17 01:35 SSE 5 7 Clear CLR 72 72     100%   74 30.01        
Jul 17 01:15 SE 3 7 Clear CLR 72 72     100%   74 30.01        
Jul 17 00:55 Calm 7 Clear CLR 72 72     100%   74 30.01        
Jul 17 00:35 Calm 7 Partly Cloudy SCT001 72 72     99%   74 30.02        
Jul 17 00:15 Calm 7 Partly Cloudy SCT001 73 72     97%   74 30.01        
Jul 16 23:55 Calm 7 Clear CLR 73 71     95%   74 30.01        
Jul 16 23:35 Calm 5 Fog/Mist CLR 73 71     94%   74 30.02        
Jul 16 23:15 Calm 7 Partly Cloudy SCT008 73 71     92%   74 30.02        
Jul 16 22:55 Calm 7 Partly Cloudy SCT006 74 71     91%   75 30.02        
Jul 16 22:35 Calm 7 Partly Cloudy SCT006 74 71     89%   76 30.03        
Jul 16 22:15 WSW 3 7 Partly Cloudy SCT110 74 71     89%   76 30.03        
Jul 16 21:55 WSW 5 10 Partly Cloudy SCT110 74 71     89%   76 30.04        
Jul 16 21:35 WSW 5 10 Partly Cloudy SCT120 75 71     89%   76 30.04        
Jul 16 21:15 WSW 3 7 Partly Cloudy SCT008 SCT012 74 72     91%   76 30.04        
Jul 16 20:55 SSW 3 10 Mostly Cloudy BKN008 BKN012 74 71     91%   75 30.04        
Jul 16 20:35 SSW 6 7 Mostly Cloudy BKN008 BKN038 74 71     89%   76 30.02        
Jul 16 20:15 SSW 3 7 Mostly Cloudy SCT008 SCT032 BKN038 75 71     88%   76 30.02        
Jul 16 19:55 WSW 5 7 Mostly Cloudy SCT010 BKN030 75 71     88%   77 30.01        
Jul 16 19:35 SW 3 10 Partly Cloudy SCT010 75 71     89%   76 30.01        
Jul 16 19:15 S 5 10 Clear CLR 75 72     89%   77 30.01        
Jul 16 18:55 SSW 6 7 Partly Cloudy SCT090 75 72     89%   77 30        
Jul 16 18:35 S 5 10 Partly Cloudy SCT090 SCT120 76 72     89%   77 29.99        
Jul 16 18:15 Calm 10 Light Rain SCT014 SCT030 BKN055 76 72     87%   77 29.98        
Jul 16 17:55 SE 7 5 Rain SCT014 SCT023 OVC030 77 72     83%   79 29.99        
Jul 16 17:35 WSW 11 10 Mostly Cloudy SCT023 BKN032 BKN047 81 72     73%   85 29.99        
Jul 16 17:15 Calm 10 Mostly Cloudy BKN036 BKN044 86 77     73%   97 29.98        
Jul 16 16:55 Calm 7 Mostly Cloudy BKN036 BKN042 86 76     72%   96 29.98        
Jul 16 16:35 SSW 3 10 Mostly Cloudy SCT033 BKN045 BKN080 86 77     75%   96 29.98        
Jul 16 16:15 Calm 10 Light Rain SCT027 BKN035 OVC090 87 76     69%   97 29.98        
May 15 06:15 Calm 7 Clear   64 63     94%     29.94        
May 14 20:15 Calm 10 Clear   76 68     76%   77 29.91        
May 14 06:35 Calm 4 Fog/Mist CLR 63 63     100%     30.02        
May 14 05:35 Calm 7 Clear   63 62     99%     30.02        
May 14 00:35 Calm 7 Clear CLR 67 65     92%     30.04        
May 13 20:35 Calm 10 Clear CLR 73 68     84%   74 30.02        
May 13 20:15 Calm 10 Clear CLR 74 68     81%   75 30.01        
May 13 18:55 Calm 10 Clear CLR 85 69     59%   89 30.01        
May 13 17:15 NNE 3 10 Clear CLR 91 59     34%   90 30.02        
May 13 16:35 ENE 3 10 Clear CLR 91 58     33%   90 30.02        
May 13 13:35 N 3 10 Partly Cloudy SCT060 90 59     36%   89 30.09        
May 13 12:15 N 5 10 Clear   88 60     39%   88 30.12        
May 13 10:35 NNW 6 10 Clear CLR 83 62     48%   84 30.14        
May 13 09:55 NW 5 10 Clear CLR 81 64     56%   83 30.14        
May 13 08:15 Calm 10 Clear CLR 72 64     76%   73 30.13        
May 13 06:35 Calm 5 Fog/Mist CLR 60 59     97%     30.1        
May 13 02:15 Calm 10 Clear CLR 63 61     93%     30.05        
May 12 21:35 Calm 10 Clear CLR 69 65     85%     30.08        
Notice The following observation data may not be complete
May 12 20:15 Calm 10 Clear CLR   66      %     30.06        
Notice The following observation data may not be complete
May 12 19:55 Calm 10 Clear CLR   66      %     30.05        
May 12 16:55 SSW 5 10 Clear CLR 90 53     28%   88 30.06        
May 12 15:35 Calm 10 Clear CLR 90        %     30.08        
May 12 06:35 Calm 10 Clear CLR 55 53     94%     30.14        
May 12 02:55 Calm 10 Clear CLR 58 55     90%     30.07        
Notice The following observation data may not be complete
May 12 01:15 Calm 10 Clear CLR   56      %     30.07        
May 11 20:55 Calm 10 Clear CLR 69 64     83%     30.06        
Jun 11 23:15 SE 5 10 Clear   74 74     100%   76 30.1        
Notice The following observation data may not be complete
Jun 11 20:35   10 Clear            %              
Jun 11 20:15 N 3 10 Clear   74 74     100%   76 30.06        
Notice The following observation data may not be complete
Jun 11 19:35   10 Clear            %              
Jun 11 13:55 S 3 10 Clear   89 65     44%   91 30.09        
Notice The following observation data may not be complete
Jun 11 05:15   10 Clear            %              
Jun 11 02:15 Calm 10 Clear   67 66     99%     30.04        
Jun 11 00:35 Calm 10 Clear   67 66     96%     30.05        
Jun 10 22:15 Calm 10 Clear   71 67     87%   71 30.05        
Notice The following observation data may not be complete
Jun 10 20:35 Calm 10 Clear     66      %     30.01        
Jun 10 17:55 SE 6 10 Clear   87 60     40%   87 29.99        
Notice The following observation data may not be complete
Jun 10 15:15   10 Clear            %              
Jun 10 12:35 SSE 8 10 Clear   85 60     44%   85 30.06        
Notice The following observation data may not be complete
Jun 10 11:15   10 Clear            %              
Jun 10 07:35 Calm 10 Clear   67 65     93%     30.03        
Notice The following observation data may not be complete
Jun 10 03:55 Calm 10 Clear            %     29.98        
Jun 09 22:35 Calm 10 Clear   65 64     98%     29.97        
Jun 08 06:55 Calm 10 Clear   61 59     93%     29.91        
Notice The following observation data may not be complete
Jun 08 06:35   10 Clear            %              
Notice The following observation data may not be complete
Jun 07 18:35   10 Clear            %              
Jun 07 14:55 N 10 10 Clear   83 59     43%   83 29.8        
Notice The following observation data may not be complete
Jun 07 10:15   10 Clear            %              
Jun 06 14:35 NE 10 10 Clear   76 68     77%   77 29.74        
Jun 06 13:35 NW 6 10 Clear   81 71     70%   85 29.73        
Jun 06 10:15 NNW 5 10 Clear   76 73     88%   78 29.77        
Jun 06 09:55 N 3 10 Clear   76 73     92%   77 29.77        
Jun 05 16:35 WSW 3 10 Clear   78 71     78%   79 29.75